Location: �chenoz-la-M�line
(47.6009°N, 6.1354°E)
Time: 13:01:59
(UTC+00:00)

MOS 1 Rocket - Pass Details

Date: 27 January 2021
Orbit: 614 x 830 km, 97.4° (Epoch: 02 March)

Event Time Altitude Azimuth Distance (km) Brightness Sun altitude
Rises 05:50:49 0° 196° (SSW) 3,159 6.7 -13.0°
Reaches altitude 10° 05:53:28 10° 208° (SSW) 2,203 5.7 -12.6°
Maximum altitude 05:57:32 27° 266° (W) 1,334 4.2 -11.9°
Drops below altitude 10° 06:01:26 10° 324° (NW) 2,105 5.3 -11.3°
Enters shadow 06:02:34 - 331° (NNW) 2,495 5.8 -11.1°
